Previsão horária em Cavalcante

Hoje, 29 Julho, Quinta-feira

Tempo Temperatura Precipitação Vento Pressão Humidade
00:00 +22°C° 0 mm 1 m/s 692 mmHg 32%
01:00 +22°C° 0 mm 1 m/s 692 mmHg 33%
02:00 +21°C° 0 mm 1 m/s 692 mmHg 35%
03:00 +21°C° 0 mm 1 m/s 691 mmHg 36%
04:00 +20°C° 0 mm 1 m/s 691 mmHg 41%
05:00 +19°C° 0 mm 1 m/s 692 mmHg 46%
06:00 +19°C° 0 mm 1 m/s 692 mmHg 50%
07:00 +21°C° 0 mm 1 m/s 693 mmHg 47%
08:00 +23°C° 0 mm 1 m/s 693 mmHg 44%
09:00 +25°C° 0 mm 1 m/s 694 mmHg 41%
10:00 +27°C° 0 mm 1 m/s 694 mmHg 37%
11:00 +29°C° 0 mm 1 m/s 694 mmHg 33%
12:00 +31°C° 0 mm 2 m/s 694 mmHg 29%
13:00 +31°C° 0 mm 1 m/s 694 mmHg 27%
14:00 +32°C° 0 mm 1 m/s 693 mmHg 25%
15:00 +32°C° 0 mm 1 m/s 692 mmHg 24%
16:00 +30°C° 0 mm 1 m/s 692 mmHg 27%
17:00 +28°C° 0 mm 1 m/s 692 mmHg 31%
18:00 +26°C° 0 mm 1 m/s 691 mmHg 35%
19:00 +25°C° 0 mm 1 m/s 692 mmHg 37%
20:00 +24°C° 0 mm 1 m/s 692 mmHg 40%
21:00 +23°C° 0 mm 1 m/s 693 mmHg 42%
22:00 +23°C° 0 mm 1 m/s 693 mmHg 43%
23:00 +22°C° 0 mm 1 m/s 692 mmHg 43%

Amanhã, 30 Julho, Sexta-feira

Tempo Temperatura Precipitação Vento Pressão Humidade
00:00 +22°C° 0 mm 1 m/s 692 mmHg 44%
01:00 +21°C° 0 mm 1 m/s 692 mmHg 45%
02:00 +21°C° 0 mm 1 m/s 692 mmHg 47%
03:00 +20°C° 0 mm 1 m/s 691 mmHg 48%
04:00 +19°C° 0 mm 1 m/s 691 mmHg 48%
05:00 +18°C° 0 mm 2 m/s 692 mmHg 47%
06:00 +17°C° 0 mm 2 m/s 692 mmHg 46%
07:00 +20°C° 0 mm 2 m/s 693 mmHg 40%
08:00 +23°C° 0 mm 2 m/s 694 mmHg 34%
09:00 +26°C° 0 mm 2 m/s 695 mmHg 28%
10:00 +27°C° 0 mm 2 m/s 695 mmHg 25%
11:00 +29°C° 0 mm 3 m/s 695 mmHg 23%
12:00 +31°C° 0 mm 3 m/s 695 mmHg 20%
13:00 +31°C° 0 mm 3 m/s 694 mmHg 19%
14:00 +33°C° 0 mm 3 m/s 694 mmHg 19%
15:00 +33°C° 0 mm 3 m/s 693 mmHg 18%
16:00 +30°C° 0 mm 2 m/s 693 mmHg 21%
17:00 +28°C° 0 mm 2 m/s 693 mmHg 23%
18:00 +26°C° 0 mm 2 m/s 693 mmHg 26%
19:00 +25°C° 0 mm 2 m/s 693 mmHg 28%
20:00 +24°C° 0 mm 2 m/s 693 mmHg 29%
21:00 +23°C° 0 mm 2 m/s 694 mmHg 31%
22:00 +23°C° 0 mm 2 m/s 694 mmHg 31%
23:00 +23°C° 0 mm 2 m/s 694 mmHg 32%

Depois de amanhã, 31 Julho, Sábado

Tempo Temperatura Precipitação Vento Pressão Humidade
00:00 +23°C° 0 mm 2 m/s 694 mmHg 32%
01:00 +21°C° 0 mm 2 m/s 693 mmHg 38%
02:00 +20°C° 0 mm 2 m/s 693 mmHg 44%
03:00 +19°C° 0 mm 2 m/s 693 mmHg 49%
04:00 +19°C° 0 mm 2 m/s 693 mmHg 56%
05:00 +18°C° 0 mm 2 m/s 694 mmHg 62%
06:00 +18°C° 0 mm 2 m/s 694 mmHg 68%
07:00 +19°C° 0 mm 3 m/s 695 mmHg 63%
08:00 +21°C° 0 mm 3 m/s 696 mmHg 59%
09:00 +23°C° 0 mm 4 m/s 697 mmHg 54%
10:00 +26°C° 0 mm 4 m/s 696 mmHg 49%
11:00 +28°C° 0 mm 4 m/s 696 mmHg 43%
12:00 +29°C° 0 mm 5 m/s 696 mmHg 38%
13:00 +30°C° 0 mm 4 m/s 695 mmHg 36%
14:00 +32°C° 0 mm 4 m/s 695 mmHg 33%
15:00 +32°C° 0 mm 4 m/s 694 mmHg 31%
16:00 +30°C° 0 mm 3 m/s 694 mmHg 33%
17:00 +28°C° 0 mm 3 m/s 694 mmHg 36%
18:00 +27°C° 0 mm 2 m/s 694 mmHg 39%
19:00 +26°C° 0 mm 2 m/s 694 mmHg 41%
20:00 +25°C° 0 mm 3 m/s 695 mmHg 43%
21:00 +24°C° 0 mm 3 m/s 695 mmHg 45%
22:00 +24°C° 0 mm 3 m/s 695 mmHg 47%
23:00 +22°C° 0 mm 3 m/s 695 mmHg 50%

1 Agosto, Domingo

Tempo Temperatura Precipitação Vento Pressão Humidade
00:00 +21°C° 0 mm 4 m/s 696 mmHg 53%
01:00 +20°C° 0 mm 3 m/s 695 mmHg 56%
02:00 +19°C° 0 mm 3 m/s 695 mmHg 59%
03:00 +19°C° 0 mm 3 m/s 695 mmHg 63%
04:00 +18°C° 0 mm 3 m/s 695 mmHg 66%
05:00 +17°C° 0 mm 3 m/s 695 mmHg 70%
06:00 +16°C° 0 mm 3 m/s 695 mmHg 74%
07:00 +18°C° 0 mm 3 m/s 696 mmHg 67%
08:00 +19°C° 0 mm 3 m/s 697 mmHg 61%
09:00 +21°C° 0 mm 4 m/s 698 mmHg 54%
10:00 +23°C° 0 mm 4 m/s 698 mmHg 48%
11:00 +26°C° 0 mm 4 m/s 698 mmHg 42%
12:00 +28°C° 0 mm 5 m/s 697 mmHg 36%
13:00 +28°C° 0 mm 4 m/s 697 mmHg 33%
14:00 +29°C° 0 mm 4 m/s 696 mmHg 30%
15:00 +30°C° 0 mm 4 m/s 695 mmHg 28%
16:00 +28°C° 0 mm 3 m/s 695 mmHg 30%
17:00 +27°C° 0 mm 3 m/s 695 mmHg 33%
18:00 +25°C° 0 mm 2 m/s 695 mmHg 35%
19:00 +24°C° 0 mm 2 m/s 696 mmHg 37%
20:00 +23°C° 0 mm 2 m/s 696 mmHg 39%
21:00 +21°C° 0 mm 3 m/s 696 mmHg 42%
22:00 +20°C° 0 mm 2 m/s 696 mmHg 43%
23:00 +20°C° 0 mm 2 m/s 696 mmHg 44%

2 Agosto, Segunda-feira

Tempo Temperatura Precipitação Vento Pressão Humidade
00:00 +19°C° 0 mm 2 m/s 696 mmHg 44%
01:00 +18°C° 0 mm 2 m/s 696 mmHg 46%
02:00 +17°C° 0 mm 2 m/s 695 mmHg 48%
03:00 +17°C° 0 mm 2 m/s 695 mmHg 50%
04:00 +16°C° 0 mm 2 m/s 695 mmHg 53%
05:00 +16°C° 0 mm 2 m/s 695 mmHg 56%
06:00 +15°C° 0 mm 2 m/s 696 mmHg 59%
07:00 +17°C° 0 mm 3 m/s 696 mmHg 54%
08:00 +19°C° 0 mm 3 m/s 697 mmHg 49%
09:00 +21°C° 0 mm 3 m/s 697 mmHg 44%
10:00 +22°C° 0 mm 4 m/s 697 mmHg 39%
11:00 +25°C° 0 mm 4 m/s 697 mmHg 34%
12:00 +27°C° 0 mm 4 m/s 697 mmHg 29%
13:00 +28°C° 0 mm 4 m/s 697 mmHg 27%
14:00 +29°C° 0 mm 4 m/s 696 mmHg 24%
15:00 +29°C° 0 mm 4 m/s 695 mmHg 21%
16:00 +27°C° 0 mm 3 m/s 695 mmHg 23%
17:00 +26°C° 0 mm 3 m/s 695 mmHg 25%
18:00 +24°C° 0 mm 2 m/s 694 mmHg 27%
19:00 +23°C° 0 mm 2 m/s 695 mmHg 29%
20:00 +21°C° 0 mm 2 m/s 695 mmHg 31%
21:00 +20°C° 0 mm 2 m/s 695 mmHg 32%
22:00 +19°C° 0 mm 2 m/s 695 mmHg 34%
23:00 +18°C° 0 mm 2 m/s 695 mmHg 36%

3 Agosto, Terça-feira

Tempo Temperatura Precipitação Vento Pressão Humidade
00:00 +18°C° 0 mm 2 m/s 695 mmHg 37%
01:00 +17°C° 0 mm 2 m/s 694 mmHg 39%
02:00 +17°C° 0 mm 2 m/s 694 mmHg 41%
03:00 +17°C° 0 mm 2 m/s 693 mmHg 43%
04:00 +16°C° 0 mm 2 m/s 693 mmHg 46%
05:00 +15°C° 0 mm 2 m/s 693 mmHg 49%
06:00 +15°C° 0 mm 2 m/s 693 mmHg 52%
07:00 +17°C° 0 mm 2 m/s 694 mmHg 48%
08:00 +20°C° 0 mm 2 m/s 695 mmHg 44%
09:00 +22°C° 0 mm 3 m/s 696 mmHg 40%
10:00 +25°C° 0 mm 3 m/s 696 mmHg 35%
11:00 +27°C° 0 mm 3 m/s 696 mmHg 30%
12:00 +29°C° 0 mm 3 m/s 696 mmHg 25%
13:00 +29°C° 0 mm 3 m/s 695 mmHg 23%
14:00 +30°C° 0 mm 3 m/s 694 mmHg 21%
15:00 +31°C° 0 mm 3 m/s 694 mmHg 19%
16:00 +29°C° 0 mm 2 m/s 693 mmHg 22%
17:00 +27°C° 0 mm 2 m/s 693 mmHg 26%
18:00 +25°C° 0 mm 2 m/s 693 mmHg 29%
19:00 +24°C° 0 mm 2 m/s 693 mmHg 31%
20:00 +23°C° 0 mm 2 m/s 693 mmHg 33%
21:00 +21°C° 0 mm 2 m/s 694 mmHg 35%
22:00 +20°C° 0 mm 2 m/s 694 mmHg 36%
23:00 +20°C° 0 mm 2 m/s 694 mmHg 36%
Mostrar mais

Necessitamos do seu Consentimento

A Meteoprog e os seus Fornecedores de Serviços podem armazenar e aceder a dados pessoais como cookies, identificadores do dispositivo ou outras tecnologias semelhantes existentes no seu dispositivo e processar estes dados para personalizar conteúdos e anúncios, assim como funcionalidades nas redes sociais e análise de tráfego.

  • Armazenar e/ou aceder a informações no seu dispositivo

    Os cookies, identificadores do dispositivo ou outras informações podem ser armazenados ou acedidos no seu dispositivo, para os fins acima indicados.

  • Anúncios e conteúdos personalizados, medição de anúncios e conteúdos, dados sobre o público-alvo e desenvolvimento de produtos

    Os anúncios e os conteúdos podem ser personalizados com base num perfil. Podem ser adicionados dados adicionais para uma maior personalização dos anúncios e dos conteúdos. A eficácia dos anúncios e dos conteúdos pode ser medida. Podem ser obtidas informações sobre o público que visualizou os anúncios e os conteúdos. Estes dados podem ser usados para desenvolver ou melhorar sistemas, softwares ou a experiência do utilizador.

Ao clicar em "Eu concordo”, permitirá o uso de cookies, identificadores do dispositivo e web beacons mencionados ou outras tecnologias semelhantes. As configurações do navegador do seu dispositivo podem ser alteradas.

Para certos fins, podem ser invocados interesses legítimos ao invés de consentimento. Pode ler mais informação sobre este assunto na nossa Política de Privacidade e Cookies.